Lapse_Rate
6.3 6.1 6.5 6.7 6.8 7.2 7.1 7.0 7.4 7.1 7.3 7.1 5.2 3.3 3.6 3.2 2.8 2.9 2.9 3.6 3.4 3.6 3.5 3.4 3.1 3.5 4.5 5.1 5.9 6.4 6.2 6.3 6.5 6.7 6.6 6.8 7.0 7.3
7.3 6.6 6.6 6.8 6.8 7.0 6.9 7.1 7.0 7.0 7.0 7.6 6.3 4.4 4.2 3.7 3.3 2.3 2.1 2.7 2.7 3.4 3.3 2.8 2.9 3.5 3.8 4.4 4.4 5.4 5.5 5.1 5.6 5.9 6.7 6.6 6.6 7.6
8.3 7.3 6.9 6.7 6.7 6.6 6.7 6.9 6.9 6.8 6.9 6.3 6.3 5.1 5.2 4.5 3.3 2.3 1.8 1.7 2.0 2.6 2.6 2.3 2.9 3.5 3.4 3.4 4.1 4.3 4.6 5.2 5.2 5.5 5.8 6.0 6.4 5.7
8.5 7.9 7.5 7.9 6.7 6.3 6.2 6.4 6.8 6.8 7.3 6.9 6.0 5.9 5.4 4.3 3.6 2.6 1.9 1.4 1.1 1.8 2.7 2.4 2.8 3.3 3.0 2.6 3.4 3.9 4.1 4.9 4.9 5.2 5.7 6.0 5.2 4.7
8.3 8.5 8.0 7.4 6.6 6.2 6.1 6.4 6.6 7.4 6.8 6.9 6.3 5.3 3.8 3.6 2.8 2.4 1.0 0.9 0.4 0.5 1.0 2.5 2.9 3.1 2.7 2.2 2.3 3.1 4.2 4.0 4.2 4.6 5.0 4.8 4.6 4.8
8.0 8.2 8.1 7.7 7.3 6.8 6.6 6.3 7.0 6.7 6.2 6.5 6.3 5.7 4.9 3.8 3.9 3.2 1.5 0.0 0.3 0.1 -0.1 -0.3 0.7 0.9 1.4 1.8 2.8 2.6 3.6 3.6 3.7 3.7 3.6 3.5 3.8 4.3
7.2 7.4 7.8 8.1 8.6 8.5 8.0 7.1 6.9 7.3 7.6 7.0 6.8 6.5 5.2 4.5 4.6 3.3 2.0 1.1 0.8 -0.1 -0.8 -1.5 -1.1 -0.5 -0.1 0.4 0.4 1.8 2.2 3.3 2.7 2.8 2.9 2.4 3.1 3.7
7.1 6.9 7.2 7.8 8.2 8.9 8.9 8.9 8.6 7.3 7.6 7.6 7.1 6.5 5.4 4.8 3.8 3.4 1.7 2.0 2.6 0.8 0.1 -0.3 -0.7 0.4 1.2 1.8 1.4 1.6 1.9 1.7 1.6 1.6 1.8 2.9 3.0 2.9
7.3 7.2 7.2 8.4 7.8 8.0 8.4 9.0 8.9 8.8 8.1 7.3 7.3 6.8 5.7 5.3 4.4 2.8 2.1 2.2 1.4 0.4 0.9 0.3 -1.0 0.9 1.3 2.5 1.8 1.5 2.1 1.5 1.1 2.4 1.8 1.5 1.9 1.6
7.7 7.7 7.5 7.3 7.7 7.4 7.6 7.8 8.4 8.5 7.9 7.8 7.3 6.7 6.3 4.9 5.5 4.5 2.9 -0.3 -0.2 -0.6 0.0 1.0 -0.5 -0.0 1.8 3.2 3.6 3.1 2.8 2.4 2.0 1.9 2.2 1.9 1.7 1.9
7.2 8.0 7.7 6.4 7.3 8.0 7.4 7.1 7.6 8.1 8.9 8.7 8.4 8.2 7.1 6.9 5.9 3.5 2.8 2.5 0.6 0.2 -0.6 -0.5 0.2 0.7 0.4 0.2 2.6 3.1 2.6 2.2 1.9 1.4 1.4 1.4 1.6 1.9
7.0 7.5 8.0 7.8 7.5 7.9 7.1 7.0 6.7 7.1 7.8 7.7 7.4 7.6 7.8 7.0 6.4 5.1 3.6 4.0 0.5 1.1 -0.0 -0.2 0.6 0.9 2.6 1.5 1.3 1.7 2.8 2.8 1.9 1.7 1.7 1.9 1.1 -0.2
7.6 7.6 7.7 8.3 8.3 8.3 8.2 6.9 6.9 6.7 7.4 7.1 6.8 6.4 5.4 5.7 5.3 5.0 4.0 4.4 1.8 1.0 0.1 0.2 0.4 0.1 0.4 1.5 2.0 1.4 2.2 1.8 1.8 2.1 2.6 2.2 1.8 0.9
7.1 7.5 7.7 8.0 7.9 8.1 8.0 8.0 7.6 7.3 6.3 6.5 6.5 6.4 6.0 5.3 4.7 4.3 3.2 2.4 1.5 1.6 0.2 -0.5 0.2 -0.1 -0.6 0.5 2.3 1.9 1.3 1.1 1.1 0.1 1.3 3.1 3.0 2.2
6.6 6.8 7.7 8.3 8.2 7.6 7.8 7.9 8.1 7.3 6.4 6.5 6.2 6.1 5.6 4.9 3.3 1.4 0.9 0.2 -0.2 0.6 0.7 -0.4 0.3 -0.8 0.3 -0.4 -0.7 0.2 0.4 1.5 1.9 0.9 0.5 -0.6 -0.9 -0.1
6.2 5.9 6.6 7.9 7.9 7.0 7.0 7.1 6.9 6.6 6.6 6.3 6.1 4.5 3.3 3.6 3.3 1.7 1.8 1.3 0.7 -0.4 -0.8 -0.1 0.1 0.6 -0.5 0.0 0.2 0.2 -0.4 0.1 0.8 0.7 1.0 -0.9 -0.5 0.1
6.6 6.3 5.7 6.4 6.4 6.3 6.3 6.4 6.2 6.0 6.4 6.1 4.7 3.6 3.5 3.2 2.6 2.0 1.5 0.8 -0.3 -0.8 -1.7 -1.9 -1.8 -1.2 -0.5 -0.1 0.5 -0.3 -1.3 -0.4 0.1 -0.3 -0.6 -1.4 -1.0 -0.1
6.5 6.2 6.7 6.0 6.1 6.5 6.3 6.2 6.1 6.5 5.9 5.4 4.5 4.0 3.5 3.2 2.4 2.0 1.5 1.3 0.2 -0.8 -1.8 -1.8 -1.6 -0.4 -0.3 -0.4 -0.3 -1.4 -0.5 -0.2 -0.9 -0.1 -1.2 -2.5 -2.1 -0.4
6.6 6.3 5.2 5.6 6.5 6.1 5.9 5.8 6.2 6.2 5.7 5.1 4.8 4.1 3.5 2.9 2.8 2.1 1.8 0.8 0.0 -0.8 -0.7 -0.9 0.8 1.8 1.1 -0.5 -0.0 0.8 -0.2 -0.3 -1.4 -2.0 -1.6 -2.5 -2.2 -1.0
5.5 5.1 4.6 4.4 4.3 4.4 5.0 5.9 6.1 5.9 5.7 5.1 4.6 3.9 3.1 3.1 2.4 2.2 1.8 1.0 -0.0 -0.4 -0.2 0.1 1.3 2.2 1.1 -0.5 -1.1 -0.3 1.9 -1.2 -2.6 -2.5 -2.6 -1.9 -0.0 1.2
5.6 5.1 4.3 3.5 3.1 3.1 3.3 4.5 5.6 5.7 5.3 5.0 3.9 3.3 2.7 2.5 2.1 1.8 1.5 1.2 0.1 -0.4 0.0 0.1 -0.7 -0.6 -1.9 -0.8 0.2 -0.1 -0.4 3.1 0.4 -2.4 -3.6 -3.2 -3.0 -2.0
5.6 5.3 4.6 3.8 2.8 3.1 2.6 3.3 4.6 5.1 4.7 4.1 3.0 2.7 2.2 2.0 2.0 1.3 1.5 0.9 0.8 0.5 -0.4 -0.1 -0.3 -0.8 -2.4 -0.1 -1.0 -1.1 0.6 -0.0 2.8 2.4 2.1 0.2 -2.1 -2.1
5.6 5.3 5.1 4.9 4.8 4.5 4.4 4.3 4.5 3.8 3.4 2.6 2.0 1.7 1.8 1.5 1.6 1.7 1.6 1.0 -0.5 -0.4 -0.3 -0.1 0.0 0.3 -0.3 -0.5 -1.3 -2.4 -0.5 -1.4 -0.9 -0.9 -1.5 2.1 1.9 2.2
Wind_Speed
7 7 7 7 6 6 6 5 5 4 6 3 3 4 4 4 7 4 4 5 5 5 4 4 6 8 3 20 27 30 31 32 32 32 29 27 27 25
6 6 6 6 6 5 5 5 4 5 6 3 3 2 1 2 5 5 5 5 7 6 3 3 4 5 5 6 12 27 34 34 35 34 31 32 31 29
6 8 9 7 6 5 5 5 6 4 6 7 5 2 1 1 3 4 5 5 3 6 6 4 4 4 5 9 15 17 17 33 36 37 35 36 35 32
10 9 9 7 7 6 5 7 6 4 5 9 6 3 3 1 1 2 2 5 5 9 5 8 7 8 4 6 12 13 25 35 39 37 37 36 36 31
11 10 9 9 8 6 6 6 6 5 3 4 4 2 2 2 2 2 3 4 6 13 15 12 2 5 7 7 10 14 22 37 38 39 39 36 33 31
11 11 10 9 10 8 7 6 7 6 3 5 6 4 2 2 2 1 2 4 3 5 12 16 16 18 17 8 10 20 28 31 37 39 37 34 32 30
11 11 11 13 19 15 7 6 5 6 5 4 5 2 3 1 3 2 2 2 3 3 3 7 5 7 11 14 9 15 28 36 40 40 38 36 30 27
10 10 10 15 16 20 20 20 14 7 8 5 5 3 3 1 2 3 3 2 2 2 3 5 5 8 7 15 24 31 30 37 39 38 34 33 28 24
10 9 8 8 13 11 15 19 19 21 19 8 8 6 3 1 1 3 3 2 3 2 4 4 5 7 5 17 28 30 30 32 34 32 31 30 26 23
13 12 10 10 11 11 10 10 10 9 9 7 7 7 5 3 3 2 2 5 6 3 2 3 3 5 5 13 22 25 27 29 29 29 25 25 23 20
10 11 11 11 16 19 12 10 10 9 11 15 13 11 10 11 7 4 4 6 3 1 2 4 1 3 5 5 11 20 24 25 26 25 24 22 20 17
11 11 19 16 20 21 13 9 10 9 8 8 7 11 11 6 8 8 6 7 4 2 3 4 4 3 3 3 3 7 16 21 21 21 20 19 18 14
8 7 7 17 19 20 20 11 11 9 12 8 7 5 4 4 5 7 7 8 3 2 8 4 4 3 3 4 1 3 8 11 12 15 16 16 14 13
9 8 11 20 19 21 17 18 19 19 6 6 6 6 5 5 4 5 7 4 2 1 16 4 6 4 5 3 3 2 4 8 10 6 10 14 12 11
8 14 21 21 22 18 22 21 18 8 7 7 7 6 5 4 5 5 6 8 8 7 13 3 7 8 4 7 7 4 6 3 6 5 6 5 3 3
16 14 16 19 20 13 11 12 8 6 7 7 6 3 3 4 4 4 5 6 5 5 9 9 10 8 4 7 9 9 6 5 5 4 4 4 7 7
11 7 8 8 7 7 6 7 7 6 6 6 4 5 4 5 3 4 6 5 4 5 4 6 15 16 9 6 6 7 6 4 5 6 3 3 3 5
7 6 6 8 8 7 7 7 7 9 7 5 6 7 6 6 6 5 5 5 9 8 8 8 11 9 5 11 11 8 6 5 3 4 3 3 1 1
7 6 4 5 5 6 7 7 8 9 8 8 7 7 7 7 10 7 6 8 8 8 8 8 8 10 7 3 2 7 6 4 3 2 2 2 3 2
3 3 4 5 5 6 6 7 7 8 9 8 8 8 8 9 8 7 7 9 9 8 7 3 3 6 7 7 5 2 11 6 3 3 2 2 5 6
3 3 3 3 4 4 4 5 6 7 10 9 9 9 9 9 8 8 8 14 15 9 9 7 4 17 10 8 7 3 2 8 5 3 3 3 2 2
3 3 2 2 2 3 3 3 5 8 9 9 9 9 9 9 9 10 10 10 9 9 8 7 7 6 3 6 11 7 5 3 17 18 13 5 4 3
4 3 2 1 2 3 3 4 6 6 8 9 9 9 10 9 9 10 10 10 11 11 11 9 4 5 8 9 14 6 11 4 3 6 5 15 14 12
Wind_Direction
269 268 269 274 276 271 268 254 263 286 302 307 333 22 357 358 28 24 37 27 33 47 56 53 62 60 100 197 207 205 198 192 189 183 182 186 182 175
271 264 269 278 277 276 277 270 245 270 276 324 311 310 32 351 354 31 32 26 31 355 10 55 59 113 153 213 217 208 203 188 181 179 186 185 174 168
280 279 274 275 279 281 277 267 251 245 275 289 298 246 282 37 21 41 28 34 19 332 321 292 230 227 178 196 192 201 190 185 178 177 181 175 168 156
283 264 266 275 275 278 282 279 271 247 259 276 295 290 229 65 52 61 55 39 32 356 302 264 249 251 236 218 226 215 199 188 167 174 173 169 159 157
276 275 270 267 264 261 256 266 269 260 252 278 292 340 311 106 67 315 46 53 28 28 24 18 348 314 304 271 233 208 185 169 170 164 160 158 155 154
268 269 265 260 258 256 251 251 262 254 235 253 259 255 235 238 136 145 66 47 22 14 39 27 38 48 43 28 235 212 185 168 159 151 144 146 147 149
255 259 259 259 263 252 249 239 244 256 237 253 256 286 189 207 164 175 98 95 52 10 43 23 359 34 28 27 31 155 167 155 143 139 142 139 139 145
260 250 252 265 270 267 257 255 253 255 247 238 257 242 290 248 136 147 130 152 130 5 69 33 4 48 42 56 74 91 111 121 120 120 126 128 132 140
268 261 253 251 258 259 261 256 252 252 248 229 240 240 245 248 209 157 164 146 120 99 99 53 0 57 38 73 81 87 98 105 115 120 127 129 136 135
272 267 256 254 253 245 245 248 247 247 248 254 240 242 234 214 229 218 170 97 80 72 66 94 348 37 42 80 94 104 109 111 115 120 128 128 129 134
266 258 249 246 245 250 251 240 240 242 245 247 250 242 231 224 203 130 142 142 103 91 48 106 118 74 41 31 91 110 113 118 122 125 124 127 131 135
258 255 257 249 244 242 242 234 223 227 225 232 237 245 245 238 245 206 173 168 123 101 208 97 137 157 72 5 19 73 117 124 125 126 132 138 133 117
272 267 259 254 253 253 247 224 225 216 226 220 222 223 204 194 195 213 195 176 154 133 171 119 152 131 79 127 54 35 118 119 119 126 135 135 136 143
260 258 261 263 257 257 250 245 226 220 207 215 216 219 204 201 191 200 190 158 106 167 162 147 147 158 132 113 139 113 88 93 109 104 107 134 134 129
268 264 264 258 258 258 247 237 234 222 199 206 211 212 193 185 133 101 99 100 72 98 146 129 147 144 141 139 146 147 134 140 134 122 112 109 114 117
268 266 256 253 253 243 234 237 225 208 205 198 206 168 130 142 149 147 142 131 106 79 53 89 120 128 106 110 142 150 136 154 146 118 108 100 106 118
259 270 236 243 235 228 224 210 202 198 201 182 156 152 152 149 145 151 146 143 124 139 113 85 84 83 70 108 120 139 126 115 127 130 96 96 79 115
264 256 254 226 224 213 212 208 200 199 199 173 161 159 156 154 149 146 146 139 138 138 127 137 124 108 86 51 57 122 100 119 115 108 112 97 83 102
260 243 226 238 229 213 212 210 205 196 181 170 163 160 155 155 151 149 140 129 127 131 139 148 153 143 128 114 73 59 118 119 113 81 89 104 143 157
261 235 238 227 215 209 210 214 197 180 175 167 159 156 156 151 147 145 144 140 135 131 126 107 127 147 138 148 130 63 126 121 112 113 115 66 95 84
291 268 246 220 204 197 195 200 196 173 167 162 157 153 151 148 144 140 137 140 137 134 131 113 85 105 107 107 98 91 13 102 126 139 142 100 104 60
316 297 271 220 174 166 161 160 161 164 158 154 151 147 147 147 143 140 139 138 134 126 112 105 113 119 71 124 123 116 116 41 90 99 90 105 154 155
339 340 344 26 125 139 141 129 133 134 138 138 139 138 138 137 137 134 132 127 125 123 123 121 101 85 104 123 125 117 116 105 94 85 48 67 70 85